Wetbulb
63.21 62.81 62.84 60.30 52.75 51.80 49.38 49.03 51.93 51.95 52.55 56.52 59.02 58.26 57.69 58.52 59.82 58.78 71.18 72.17 73.04 73.25 73.80 73.88 72.78 73.13 73.55 73.66 74.02 74.17 74.34 74.44 74.22 74.13 73.93 73.50 73.52 73.35 72.79 72.45 72.97 73.26 72.67 71.64 71.02 70.15 69.31 69.05 67.77
63.69 60.90 60.22 57.84 49.82 48.27 49.25 52.17 49.99 52.60 54.77 56.09 56.88 58.62 58.66 58.89 66.86 68.83 69.80 72.23 73.00 72.85 72.86 73.80 72.47 72.98 73.17 73.39 73.54 73.80 74.27 74.12 74.01 73.77 73.26 73.57 73.31 72.81 72.42 72.52 71.72 72.14 71.81 71.44 70.53 69.60 69.00 66.80 65.24
63.57 61.05 56.40 53.93 51.42 47.60 48.83 50.81 52.43 53.55 55.04 55.42 54.95 60.12 59.81 62.97 67.74 69.02 72.19 72.45 72.90 71.70 73.07 73.23 72.05 72.34 72.86 73.00 73.07 73.33 73.45 73.17 73.12 72.54 73.43 73.26 72.86 72.67 72.09 71.33 71.21 71.65 71.04 70.13 69.50 68.30 65.91 64.29 63.27
59.84 58.54 56.50 49.85 48.76 51.12 50.90 52.36 53.21 53.27 55.21 57.61 56.25 54.72 63.39 69.03 68.25 70.34 72.27 72.66 72.37 72.45 72.82 71.61 71.11 71.73 72.47 72.88 72.94 72.84 72.61 72.18 72.00 72.28 72.69 72.86 72.43 71.50 71.10 70.73 70.81 70.49 69.57 68.40 67.19 65.20 63.72 63.19 64.12
60.19 57.20 51.45 50.54 50.44 51.79 52.93 53.50 53.69 53.07 54.00 55.73 59.35 56.74 60.72 68.50 70.61 71.66 72.11 72.16 72.16 72.25 73.06 73.18 70.63 71.29 72.06 72.56 72.37 72.01 71.72 71.29 71.30 71.74 71.84 72.13 71.65 70.93 70.26 69.85 69.22 68.12 67.02 65.70 64.48 63.46 62.93 63.37 63.54
54.71 55.95 50.18 48.74 50.51 51.96 53.20 54.33 53.77 53.71 54.65 56.66 58.20 58.84 61.79 70.07 69.76 71.23 72.28 72.18 72.41 72.12 72.93 72.84 71.44 70.98 71.35 71.52 71.26 70.76 70.70 70.65 70.82 71.07 71.03 70.99 70.45 69.67 68.68 67.50 66.49 65.51 64.91 64.19 63.64 63.13 62.88 62.90 62.55
53.88 53.39 50.58 50.73 50.64 51.33 52.65 55.20 53.55 53.66 54.16 54.23 58.95 57.57 63.94 67.62 70.45 71.54 71.98 72.55 71.90 72.22 72.31 72.88 73.04 72.38 70.34 69.72 69.40 69.09 69.56 69.92 70.14 70.16 69.86 69.45 68.36 67.41 66.34 65.24 64.64 64.36 63.99 63.87 63.30 62.62 62.54 61.92 61.60
55.60 53.56 50.05 51.02 49.89 50.56 53.83 53.79 54.42 53.91 53.62 60.46 59.41 55.43 57.52 66.47 70.43 71.22 71.25 71.37 71.60 70.72 71.44 72.04 71.68 72.10 72.65 72.63 68.60 68.67 68.74 68.74 68.71 68.26 67.48 66.43 65.67 65.40 65.13 64.62 64.45 63.75 63.49 63.14 62.17 62.04 61.87 60.89 60.53
56.94 50.00 48.42 50.08 50.89 52.00 54.48 52.03 55.50 55.94 54.67 56.62 58.74 59.50 65.78 69.77 69.92 69.67 68.45 68.59 69.59 69.93 70.20 71.47 71.72 71.65 72.77 72.60 70.78 68.87 68.49 67.55 66.79 65.92 65.14 64.55 64.77 65.02 63.43 64.47 63.69 63.04 62.46 61.81 61.38 61.00 60.23 60.02 59.60
53.29 50.06 50.32 53.78 54.30 52.92 53.85 53.52 53.88 53.41 53.68 54.33 56.73 60.42 65.19 68.58 68.17 67.77 67.39 66.65 67.69 68.62 69.33 70.60 71.12 71.66 71.90 70.84 69.71 70.33 69.18 68.67 65.41 64.39 64.29 65.19 65.46 64.88 63.19 62.27 61.84 61.87 61.21 60.58 60.22 59.71 59.71 60.83 58.79
53.78 49.78 53.25 54.03 55.12 54.99 53.46 53.59 55.09 53.32 52.18 54.40 54.64 56.29 61.74 64.78 67.16 67.03 67.25 67.74 67.67 67.81 69.88 70.62 71.72 70.73 71.24 69.86 68.82 66.64 65.53 64.60 64.30 64.77 65.10 66.01 64.96 63.43 63.55 61.75 60.73 60.82 60.44 59.36 58.65 58.13 58.97 59.99 59.47
50.89 53.43 53.44 53.89 54.53 53.89 52.69 54.57 53.17 54.09 54.27 56.67 56.99 57.47 57.56 62.06 63.23 65.01 65.69 67.19 66.63 67.10 68.86 70.07 70.40 71.04 70.29 69.85 67.76 65.86 63.43 62.00 62.68 63.36 64.66 64.47 64.39 63.46 63.05 60.81 61.09 60.45 59.83 58.70 57.98 57.31 59.46 60.16 61.05
52.42 52.94 53.56 54.30 54.19 53.79 54.07 52.61 52.72 53.25 55.77 56.82 56.92 56.86 56.51 56.76 58.34 63.32 64.71 66.64 67.96 65.75 66.97 68.42 69.43 69.52 68.60 66.68 64.70 65.00 64.25 61.61 61.18 62.85 62.65 64.54 63.05 63.07 62.50 61.26 60.26 59.74 58.08 57.49 56.56 57.68 58.23 59.03 59.45
53.81 53.48 53.22 53.57 53.34 53.61 52.09 52.35 53.19 53.92 56.16 55.77 55.50 55.71 56.47 57.19 57.96 59.22 62.65 64.93 67.36 66.18 65.89 66.18 67.63 67.32 67.23 66.11 64.26 62.85 62.42 60.25 58.30 58.87 60.54 61.53 62.60 62.76 60.94 59.84 59.38 58.90 58.46 55.89 56.34 56.87 58.11 58.19 58.06
53.55 50.08 51.68 52.30 52.99 52.55 53.84 50.31 50.66 54.30 55.32 54.17 54.55 55.01 56.28 57.10 58.43 59.24 60.61 64.02 66.52 67.70 66.55 64.41 64.48 65.11 65.17 64.96 64.81 63.58 63.29 62.88 60.90 60.42 62.20 59.91 60.61 60.05 59.82 58.24 57.17 56.60 57.08 58.12 58.78 58.06 57.91 56.49 55.81
50.34 50.83 46.98 52.15 52.96 52.39 51.55 45.66 51.52 54.13 52.89 52.74 53.96 54.73 55.21 56.33 57.62 59.30 61.60 62.89 65.78 67.18 65.27 65.03 62.66 61.90 61.94 63.42 61.60 61.46 61.40 62.05 60.72 61.41 59.73 57.15 58.32 56.61 53.88 52.52 53.18 56.41 56.79 56.50 56.82 56.22 55.72 54.43 53.51
50.07 45.63 47.78 49.41 53.43 52.06 50.37 47.34 51.33 53.38 52.52 52.15 53.12 53.69 54.42 55.28 56.60 58.72 60.96 63.01 64.61 65.78 65.34 64.20 62.85 60.07 59.99 60.03 61.00 61.26 59.99 58.38 57.52 56.82 57.18 56.30 54.28 54.22 53.19 55.33 55.77 57.43 55.59 56.21 56.44 55.38 54.58 53.15 52.31
46.36 47.03 48.53 47.77 50.91 50.96 49.08 48.33 50.76 52.52 52.34 52.01 51.72 51.70 52.48 53.18 54.23 56.36 58.45 61.62 63.87 65.09 65.43 64.93 62.31 60.56 59.28 57.77 56.49 54.95 55.55 56.92 56.17 55.03 55.50 54.43 55.23 54.58 55.90 55.76 55.24 54.29 53.71 55.24 55.29 54.56 54.00 53.17 50.81
49.22 47.43 46.25 48.34 50.42 48.59 47.51 47.60 49.46 51.09 50.90 50.36 49.92 50.44 51.56 52.07 53.89 54.84 57.26 60.97 63.73 65.50 64.58 64.12 61.85 60.73 58.09 55.37 53.46 53.16 53.69 54.99 55.81 55.88 55.67 53.92 55.25 55.66 56.48 55.71 55.05 55.12 54.27 55.34 56.05 54.32 52.63 49.33 50.75
47.52 45.61 45.07 47.59 49.15 48.08 46.74 45.68 48.24 49.15 49.49 49.95 50.24 50.19 50.63 52.01 53.49 54.63 55.12 57.64 62.27 64.27 65.89 63.97 62.54 60.72 58.50 55.98 55.33 56.28 58.26 57.62 57.96 56.21 55.50 55.91 55.82 55.12 54.19 56.87 55.19 55.53 54.04 55.53 55.77 54.30 51.84 50.34 50.90
45.39 44.40 44.69 44.13 46.75 47.60 45.94 43.89 45.86 49.24 50.69 50.46 50.98 51.12 51.14 50.62 52.07 53.19 54.77 58.60 61.33 62.97 64.92 63.78 63.01 60.49 59.83 58.49 55.76 56.00 57.01 57.62 57.14 56.82 55.53 55.44 55.62 55.55 55.01 55.64 55.30 54.65 54.90 54.16 55.37 54.49 52.14 47.85 50.01
41.95 46.61 45.41 44.06 42.33 38.53 46.05 35.98 44.29 46.89 48.23 49.94 49.99 50.58 49.58 50.54 51.36 52.52 55.77 57.81 60.18 61.86 64.28 64.68 62.35 61.31 59.40 59.03 55.59 53.78 53.50 53.17 57.52 56.82 56.18 55.69 55.41 54.62 54.34 53.75 54.74 53.93 54.29 54.80 53.55 53.45 52.72 51.13 48.57
43.34 46.38 44.22 43.76 41.77 41.39 41.82 36.86 42.47 46.78 45.79 48.29 50.37 49.97 50.39 50.96 51.34 51.98 52.62 54.38 55.53 57.47 61.41 63.51 63.71 60.87 59.13 57.58 55.57 53.77 53.60 55.06 58.08 57.37 55.62 55.42 54.49 53.88 53.00 52.70 53.49 52.84 52.32 53.39 54.52 53.33 53.14 52.48 51.55
46.35 43.51 43.68 43.52 41.49 35.23 40.58 40.09 41.80 44.07 46.26 48.43 48.28 49.53 50.08 50.92 51.71 53.50 54.62 55.73 56.26 57.86 58.89 60.60 62.80 60.63 58.56 56.40 54.83 53.65 53.50 53.21 53.21 55.90 54.49 53.77 53.31 53.00 52.42 52.19 53.05 52.93 52.61 53.74 52.76 54.01 53.34 53.51 52.46
43.50 41.06 33.66 33.19 34.51 33.80 43.16 40.54 42.55 47.32 48.14 48.11 47.28 48.36 50.36 51.73 52.39 52.02 52.41 53.38 54.25 55.55 57.21 58.67 59.57 59.21 55.59 54.13 52.99 52.33 52.75 51.83 51.77 53.02 54.36 52.67 51.46 51.27 51.09 50.97 52.10 52.08 52.41 53.24 53.83 53.92 53.66 53.05 52.49
40.24 39.05 32.37 27.13 30.36 33.92 41.13 36.25 41.92 48.44 49.44 49.01 48.22 48.92 49.41 49.73 50.53 50.50 51.37 52.50 53.19 54.03 55.12 56.54 57.40 56.39 54.93 52.71 51.86 51.65 51.19 51.54 51.37 51.87 51.72 52.36 51.90 51.04 51.45 50.99 51.03 51.45 51.54 51.23 51.96 51.55 52.18 52.83 52.65
37.94 35.59 40.39 32.87 34.78 30.13 35.16 39.93 44.24 46.15 46.37 45.89 45.44 45.56 46.39 48.40 49.31 49.43 49.68 50.34 52.83 53.57 54.35 55.56 56.68 55.82 54.77 52.19 51.47 50.97 50.18 49.69 48.81 48.86 49.05 48.64 49.67 49.45 50.87 49.79 49.75 49.55 50.15 49.74 50.25 49.23 49.15 50.21 50.79
40.29 41.60 32.06 33.07 23.72 22.84 31.89 34.69 36.02 40.03 40.33 41.69 42.01 43.12 44.15 46.60 47.03 46.29 46.42 48.31 49.95 51.89 54.32 54.68 55.52 55.65 55.22 53.24 49.97 49.14 48.88 47.89 47.02 46.99 46.65 46.69 47.19 47.04 48.04 47.95 48.50 47.37 46.77 47.34 47.43 47.12 47.12 46.31 47.56
37.34 34.39 33.94 33.22 31.12 23.31 22.40 28.85 40.28 37.61 39.20 39.75 40.21 40.71 42.63 43.46 44.84 45.28 46.75 49.32 50.35 51.32 50.81 52.88 54.76 55.18 55.34 53.87 49.29 47.96 47.37 46.12 45.46 45.41 44.80 45.70 45.63 46.14 45.58 45.02 45.83 43.89 44.69 45.40 45.18 45.33 43.63 44.07 45.96
37.56 34.64 33.10 26.93 24.02 26.21 24.30 24.66 38.81 39.20 38.69 39.30 40.41 40.78 42.48 43.34 44.10 46.92 49.11 50.07 50.20 49.07 51.06 51.61 55.00 54.19 54.01 54.39 49.71 47.41 44.90 43.94 43.16 42.65 43.04 43.19 42.77 44.53 42.91 44.03 44.67 43.28 43.04 43.91 42.68 42.25 43.07 43.70 42.31
MSLP
1009.19 1008.39 1007.07 1005.91 1004.48 1001.89 999.36 998.58 998.95 999.31 999.88 1000.19 1000.77 1000.96 1000.96 1000.75 1000.40 1002.37 1004.81 1005.41 1005.63 1005.59 1006.88 1008.43 1009.06 1009.37 1009.74 1010.08 1010.27 1010.64 1010.79 1011.15 1011.64 1012.16 1012.55 1012.90 1013.41 1013.70 1014.03 1014.29 1014.49 1014.70 1014.83 1015.06 1015.35 1015.62 1015.88 1016.06 1016.12
1007.08 1006.84 1006.38 1004.23 1002.48 999.41 997.60 998.43 999.37 999.49 1000.21 1001.02 1001.32 1001.11 1001.11 1000.77 1001.54 1003.13 1004.54 1005.64 1006.06 1006.60 1007.09 1007.98 1009.39 1009.68 1009.99 1010.23 1010.47 1010.72 1011.07 1011.35 1011.86 1012.36 1012.79 1013.16 1013.51 1013.87 1014.27 1014.55 1014.67 1014.95 1015.15 1015.38 1015.67 1015.95 1016.22 1016.34 1016.39
1008.02 1006.59 1005.05 1002.56 1000.68 998.79 997.69 998.96 999.32 1000.04 1000.71 1000.77 1000.82 1001.36 1001.21 1001.13 1002.53 1003.43 1005.00 1005.78 1006.46 1007.12 1007.15 1007.53 1009.24 1009.83 1010.23 1010.56 1010.71 1010.93 1011.31 1011.58 1011.93 1012.40 1012.90 1013.20 1013.65 1014.07 1014.43 1014.78 1015.00 1015.22 1015.56 1015.82 1016.07 1016.35 1016.53 1016.66 1016.67
1006.69 1005.60 1004.56 1002.25 999.52 998.61 999.03 999.04 999.64 1000.08 1000.28 1000.98 1000.93 1000.77 1001.58 1002.38 1003.07 1003.85 1005.01 1005.58 1006.19 1006.67 1006.99 1008.06 1008.62 1009.47 1010.12 1010.70 1010.90 1011.23 1011.54 1011.80 1011.99 1012.28 1012.65 1012.99 1013.33 1014.14 1014.52 1014.95 1015.30 1015.47 1015.83 1016.25 1016.53 1016.71 1016.88 1016.91 1016.85
1006.26 1004.25 1002.31 1000.53 999.00 998.55 999.01 999.26 999.79 999.84 999.98 1000.46 1000.70 1000.41 1001.31 1002.71 1003.45 1004.25 1004.87 1005.66 1005.68 1006.38 1006.89 1007.77 1008.57 1009.20 1009.43 1010.31 1010.88 1011.28 1011.46 1011.87 1012.14 1012.35 1012.78 1013.20 1013.33 1013.66 1014.57 1015.12 1015.63 1015.97 1016.11 1016.38 1016.72 1016.95 1017.08 1017.05 1017.06
1004.92 1003.46 1001.35 999.24 997.67 998.07 998.94 999.19 999.70 999.91 999.70 1000.12 1000.50 1000.19 1000.86 1002.20 1003.56 1004.44 1005.17 1005.51 1005.99 1006.16 1006.73 1007.59 1008.79 1009.10 1009.59 1009.89 1010.53 1011.37 1011.72 1012.18 1012.60 1012.78 1013.10 1013.12 1013.78 1013.54 1014.67 1015.40 1016.13 1016.49 1016.54 1016.65 1016.77 1016.92 1017.16 1017.34 1017.41
1004.57 1002.50 1000.87 999.75 998.59 998.27 998.44 999.30 999.60 999.77 999.51 999.62 999.89 1000.23 1000.58 1002.11 1003.30 1004.31 1004.83 1005.60 1006.47 1006.67 1007.08 1007.39 1008.34 1009.10 1009.80 1009.82 1010.42 1010.99 1011.60 1012.20 1012.83 1013.23 1013.35 1014.04 1014.29 1013.93 1015.30 1016.10 1016.76 1016.90 1016.83 1016.95 1017.07 1017.26 1017.41 1017.59 1017.72
1003.98 1002.90 1001.14 999.89 998.79 998.33 999.03 1000.06 1000.06 1000.02 999.67 1000.18 1000.48 1000.06 999.86 1001.17 1003.49 1004.45 1004.97 1005.45 1006.29 1007.10 1007.47 1007.83 1008.07 1008.58 1008.86 1010.10 1010.64 1010.82 1011.52 1012.10 1012.78 1013.21 1013.85 1014.53 1014.95 1014.58 1015.37 1015.55 1016.90 1017.15 1017.32 1017.19 1017.37 1017.51 1017.74 1018.10 1018.00
1004.16 1002.99 1000.85 999.51 998.79 998.53 999.37 1000.29 999.92 1000.60 1000.58 1000.31 1000.55 1000.80 1001.20 1002.06 1003.98 1004.56 1005.31 1005.91 1006.15 1006.69 1007.21 1007.77 1007.88 1008.19 1008.64 1009.22 1010.10 1011.15 1011.56 1012.07 1012.74 1013.45 1014.30 1014.59 1015.11 1015.25 1015.87 1015.90 1016.81 1017.44 1017.75 1018.00 1017.93 1017.97 1017.96 1018.36 1018.36
1003.55 1002.06 1000.43 999.70 999.25 999.38 999.68 999.83 999.92 1000.22 999.99 999.87 1000.14 1000.79 1001.94 1002.87 1003.84 1004.15 1004.78 1005.38 1005.91 1006.23 1006.79 1007.16 1007.69 1007.77 1008.37 1008.98 1010.15 1010.38 1011.39 1011.97 1012.54 1013.31 1014.05 1014.18 1014.70 1015.21 1015.92 1016.25 1017.45 1017.58 1018.38 1018.52 1018.46 1018.45 1018.58 1018.30 1018.20
1002.55 1001.50 1000.90 999.88 999.67 999.71 999.77 999.55 999.73 999.51 999.15 999.57 999.29 999.47 1000.07 1001.55 1002.77 1003.47 1004.01 1004.58 1005.49 1006.48 1006.59 1006.67 1007.12 1007.63 1008.31 1009.51 1010.05 1010.56 1011.23 1011.91 1012.53 1012.98 1013.55 1013.90 1014.52 1015.11 1015.61 1016.59 1017.43 1017.67 1018.16 1018.21 1018.64 1018.58 1018.24 1018.08 1018.33
1001.95 1001.30 1001.04 1000.31 1000.04 1000.05 999.88 999.84 999.51 999.40 999.01 999.09 999.33 999.49 999.81 1000.24 1001.10 1001.86 1002.58 1003.36 1004.98 1005.93 1006.59 1006.71 1007.16 1007.62 1008.40 1009.09 1010.17 1010.73 1011.36 1011.81 1012.41 1012.92 1013.25 1013.69 1014.08 1014.66 1015.17 1015.88 1016.08 1016.84 1017.22 1017.64 1017.98 1017.99 1018.41 1018.64 1018.64
1001.08 1000.99 1001.04 1000.57 1000.27 1000.25 1000.02 999.56 999.38 999.00 999.18 999.32 999.40 999.46 999.49 999.84 999.81 1000.56 1001.29 1002.24 1003.75 1005.41 1006.17 1006.59 1007.06 1007.64 1008.34 1008.84 1009.90 1010.59 1011.06 1011.92 1012.24 1012.76 1013.09 1013.26 1013.79 1014.58 1015.30 1015.69 1016.38 1016.78 1017.09 1017.47 1017.65 1018.12 1018.80 1018.93 1019.48
1001.48 1001.08 1000.92 1000.77 1000.29 1000.03 999.63 999.13 998.84 998.21 998.11 998.16 998.73 998.75 999.23 999.26 999.36 999.63 1000.28 1001.25 1002.24 1004.64 1005.84 1006.81 1007.13 1007.77 1008.32 1008.98 1009.67 1010.45 1011.14 1011.61 1012.28 1012.70 1012.84 1013.45 1013.62 1014.17 1015.43 1016.32 1016.81 1017.10 1017.07 1017.38 1017.53 1017.68 1018.23 1018.78 1019.76
1001.85 1001.59 1000.86 1000.16 999.70 999.17 999.06 998.46 998.26 997.79 997.49 997.78 997.94 998.70 999.19 999.24 999.40 999.43 999.56 1000.11 1001.41 1003.06 1005.02 1006.25 1007.04 1007.60 1008.08 1008.62 1009.25 1009.93 1010.51 1010.99 1011.65 1011.91 1012.62 1012.94 1013.65 1014.36 1015.10 1015.88 1016.74 1016.97 1017.32 1017.40 1017.31 1017.74 1017.76 1018.89 1019.79
1001.75 1000.99 999.43 998.64 998.12 998.75 999.32 997.65 997.86 997.37 998.18 998.40 998.19 998.15 998.33 998.55 998.69 998.93 999.31 999.66 1000.44 1002.10 1004.26 1005.57 1006.72 1007.42 1007.94 1008.27 1008.90 1009.51 1010.15 1010.57 1011.02 1011.22 1012.47 1013.02 1013.81 1014.79 1015.60 1016.19 1016.68 1016.72 1016.95 1016.91 1017.32 1017.86 1018.17 1018.79 1019.80
1000.40 998.90 998.38 997.93 998.28 998.03 998.54 997.21 997.80 997.56 997.77 998.39 998.42 998.14 997.73 997.56 997.53 997.88 998.82 999.41 1000.16 1001.79 1003.55 1004.83 1005.96 1006.95 1007.74 1008.24 1008.76 1009.22 1009.99 1010.83 1011.24 1011.89 1012.37 1013.25 1014.07 1014.58 1014.92 1015.12 1015.66 1016.22 1016.53 1016.67 1017.26 1018.14 1018.67 1018.77 1019.55
999.52 998.57 997.93 997.46 997.61 997.53 997.64 996.89 997.06 997.19 997.37 997.06 997.37 997.58 997.38 997.18 997.15 997.29 997.87 998.96 1000.03 1001.23 1002.91 1004.26 1005.33 1006.53 1007.31 1008.07 1008.95 1009.54 1009.93 1010.71 1010.92 1011.54 1011.97 1012.86 1013.19 1013.92 1014.08 1014.52 1015.21 1015.95 1016.30 1016.75 1017.38 1018.29 1018.80 1019.05 1020.23
1000.48 1000.00 999.03 998.86 998.85 998.58 998.34 996.98 996.85 996.84 996.86 996.55 996.69 996.88 996.88 997.03 997.38 997.35 997.41 997.89 999.15 1000.56 1002.28 1003.55 1004.66 1005.83 1006.91 1007.61 1008.27 1008.89 1009.36 1010.26 1010.76 1011.15 1011.50 1012.23 1012.50 1013.21 1013.52 1013.76 1014.76 1015.33 1015.53 1016.02 1017.07 1017.97 1018.94 1019.23 1019.61
1001.02 1000.47 999.81 999.24 999.12 998.79 998.25 996.78 996.77 997.14 996.67 996.47 996.27 996.44 996.79 996.87 996.55 996.10 997.04 997.45 998.60 999.80 1001.30 1002.83 1004.05 1005.14 1006.21 1007.06 1007.49 1008.04 1008.12 1008.96 1009.51 1010.32 1011.00 1011.84 1012.06 1012.77 1013.06 1013.20 1014.02 1014.32 1015.11 1015.79 1016.58 1017.21 1018.37 1019.31 1019.65
1001.27 1000.57 1000.28 1000.08 999.79 998.90 999.04 997.39 994.71 995.93 995.48 995.52 995.86 996.20 996.74 997.22 996.77 997.01 997.44 998.45 999.18 999.84 1000.59 1002.30 1003.45 1004.42 1005.40 1006.20 1007.11 1007.44 1007.84 1008.39 1008.49 1009.10 1010.19 1011.10 1011.78 1012.35 1012.52 1012.71 1013.52 1014.00 1014.43 1015.29 1015.91 1016.95 1017.54 1018.77 1018.84
1001.23 1001.44 1001.13 1000.81 1000.77 999.10 998.77 998.23 993.03 996.54 995.37 995.37 995.61 995.95 996.66 997.52 998.16 998.40 998.49 998.97 999.55 999.73 1000.42 1001.52 1002.74 1003.77 1004.74 1005.48 1006.09 1006.37 1006.64 1006.83 1007.01 1007.77 1008.84 1009.82 1010.91 1011.73 1012.28 1012.86 1013.23 1013.87 1014.02 1014.50 1015.55 1016.59 1017.11 1017.86 1018.40
1001.91 1002.50 1002.13 1002.12 1001.56 1000.96 997.35 999.04 992.52 996.73 995.27 995.26 995.33 996.22 997.24 998.10 998.98 999.43 999.59 999.67 999.66 999.64 999.93 1000.68 1001.81 1003.30 1004.22 1004.94 1005.62 1005.61 1005.82 1006.09 1006.32 1006.96 1008.06 1009.10 1010.34 1011.11 1011.81 1012.63 1013.04 1013.98 1013.90 1014.44 1014.96 1015.74 1016.63 1017.03 1017.45
1003.52 1003.86 1003.13 1002.66 1002.17 1000.83 998.02 998.35 993.59 995.43 995.11 995.24 996.35 997.04 997.90 998.62 999.47 1000.12 1000.57 1000.91 1000.74 1000.49 1000.49 1000.30 1001.04 1002.71 1003.83 1004.55 1005.13 1005.18 1005.32 1005.65 1005.99 1006.35 1007.01 1008.02 1009.22 1010.24 1011.04 1011.76 1012.49 1013.19 1013.91 1014.00 1014.51 1015.25 1016.04 1016.68 1017.08
1004.57 1004.98 1004.06 1003.14 1001.74 1000.25 999.36 997.85 995.26 995.47 995.52 996.29 997.48 998.20 998.90 1000.00 1000.52 1001.25 1001.40 1001.54 1001.41 1001.49 1001.37 1001.15 1001.43 1002.06 1003.68 1004.39 1004.90 1005.24 1005.45 1005.65 1005.44 1005.73 1006.41 1007.39 1008.26 1008.95 1009.95 1010.90 1011.59 1012.48 1013.01 1013.92 1014.28 1014.70 1015.65 1016.27 1016.67
1005.52 1006.92 1006.53 1005.10 1003.27 1001.57 1000.39 998.38 996.60 996.46 996.50 997.70 998.60 999.43 1000.00 1000.54 1001.27 1001.46 1001.61 1001.54 1001.39 1001.34 1001.24 1001.44 1001.64 1002.36 1003.39 1004.07 1004.62 1005.04 1005.54 1005.76 1005.75 1005.82 1006.18 1007.08 1008.02 1008.55 1009.42 1010.14 1011.04 1011.83 1012.48 1013.39 1014.15 1014.53 1014.96 1015.74 1016.43
1007.48 1007.64 1007.88 1008.29 1006.68 1005.24 1002.13 1000.18 998.41 997.95 998.15 999.23 1000.40 1001.15 1001.43 1001.34 1001.29 1001.26 1001.44 1001.42 1001.08 1001.09 1001.37 1001.36 1001.50 1001.82 1002.66 1003.54 1004.34 1004.90 1005.32 1005.54 1005.80 1006.16 1006.57 1007.33 1007.72 1008.31 1009.29 1009.95 1010.73 1011.74 1012.51 1013.14 1013.97 1014.63 1014.94 1015.28 1016.98
1007.60 1007.93 1008.85 1009.74 1008.02 1005.78 1002.93 1001.43 999.42 999.59 1000.40 1001.06 1001.49 1002.01 1001.96 1001.63 1001.47 1001.69 1001.67 1001.28 1000.87 1000.48 1000.60 1000.68 1001.03 1001.36 1001.67 1002.46 1003.53 1004.40 1004.96 1005.41 1005.88 1006.32 1006.80 1007.39 1008.14 1008.31 1009.01 1010.11 1010.63 1011.65 1012.65 1013.39 1014.25 1014.81 1015.00 1015.33 1017.03
1007.99 1008.73 1010.26 1010.35 1009.56 1008.29 1006.46 1003.28 1002.39 1002.91 1003.06 1002.70 1002.42 1002.45 1002.54 1002.23 1001.63 1001.31 1000.97 1000.63 999.88 999.41 999.46 999.85 1000.18 1000.77 1001.00 1001.74 1002.56 1003.80 1004.62 1005.34 1005.90 1006.41 1006.85 1007.22 1007.95 1008.57 1008.96 1010.26 1010.88 1011.97 1012.75 1013.43 1013.98 1014.85 1015.10 1015.53 1016.78
1009.05 1009.40 1010.59 1010.90 1010.54 1010.07 1009.00 1005.77 1005.08 1004.63 1004.29 1003.87 1003.32 1002.50 1001.74 1001.44 1000.90 1000.46 999.96 999.19 998.24 998.06 997.97 998.10 998.43 998.87 1000.64 1001.22 1002.16 1003.30 1004.32 1005.02 1005.77 1006.50 1006.94 1007.47 1007.86 1008.18 1009.65 1010.22 1010.95 1012.33 1013.05 1013.77 1014.22 1014.30 1015.41 1016.05 1016.94
Wind_Speed
9 12 10 7 9 9 15 2 5 5 6 3 7 8 13 16 11 6 4 5 2 10 16 14 10 12 12 10 12 13 16 17 17 16 16 15 14 14 14 11 10 12 14 13 11 11 10 9 8
12 7 7 9 10 12 7 11 9 1 6 5 9 11 12 10 6 8 5 7 8 9 12 15 10 12 13 11 12 16 17 18 18 16 17 16 15 14 12 10 12 11 13 12 11 10 9 9 7
16 9 11 8 13 12 5 5 2 1 5 7 6 3 7 5 8 5 9 9 13 11 12 16 14 12 13 12 13 15 16 17 18 17 17 16 15 12 12 12 12 12 11 10 9 9 9 8 7
8 8 8 10 15 7 8 2 3 6 6 5 3 6 5 5 2 3 9 12 16 14 13 18 18 14 14 14 15 16 16 17 18 19 20 18 18 15 13 12 11 12 10 9 9 9 9 9 8
10 9 12 14 14 7 6 7 6 9 6 6 6 7 5 6 6 7 12 12 13 14 14 16 16 15 17 17 16 16 17 17 17 17 18 18 19 17 14 12 11 10 11 11 10 10 10 10 9
9 7 12 13 7 3 5 6 8 10 7 7 10 12 5 11 10 8 9 12 13 15 14 15 14 14 14 15 16 13 11 11 11 13 14 15 14 19 16 14 11 10 11 12 13 12 11 10 9
14 12 15 18 15 10 4 1 9 11 11 9 5 9 4 13 10 12 12 11 11 12 12 14 16 16 12 12 12 14 14 13 12 11 13 13 13 19 15 11 10 11 12 13 13 12 13 11 8
12 13 19 16 12 11 6 4 5 10 13 3 4 9 12 13 13 12 12 11 12 10 10 14 15 16 17 14 14 18 17 16 15 15 15 14 14 16 15 15 11 11 11 14 14 13 13 11 8
12 13 14 18 14 8 5 6 12 5 12 10 11 14 9 15 13 13 12 13 13 12 11 13 16 17 15 17 15 16 19 20 19 16 15 12 8 10 12 10 12 9 9 11 13 14 14 11 6
14 14 19 16 14 15 13 14 12 15 15 16 15 14 6 13 12 14 16 16 17 17 17 15 14 16 17 11 15 14 15 12 10 11 10 6 9 8 8 14 10 12 9 10 12 13 12 9 7
16 20 21 22 19 12 20 19 18 19 20 18 19 14 17 15 16 16 17 17 17 16 13 17 15 14 14 12 9 6 6 7 8 13 10 8 9 8 8 8 8 8 10 7 7 9 6 6 6
21 24 22 23 18 19 21 18 20 20 21 15 17 19 18 19 17 18 18 18 16 17 17 17 15 12 12 10 7 9 8 6 6 9 12 8 7 9 9 8 10 8 6 7 7 4 5 4 3
21 20 22 22 19 20 20 22 23 24 21 20 21 18 17 18 18 19 17 16 17 17 17 17 14 16 10 12 8 8 9 7 8 8 9 10 8 8 9 8 7 6 7 5 6 6 6 7 4
17 20 18 20 21 22 25 24 24 24 22 22 18 19 16 18 16 17 16 17 19 17 19 15 11 13 13 11 13 10 8 9 8 7 8 8 7 10 10 9 8 6 7 6 8 9 10 9 7
14 19 20 21 21 23 21 21 22 25 17 17 15 13 14 13 13 14 16 19 19 18 18 17 14 11 14 14 12 11 11 11 9 9 14 8 6 11 10 10 9 9 8 7 7 9 9 10 9
20 22 21 19 20 8 13 21 19 16 5 11 14 15 15 17 16 16 14 15 17 16 17 17 13 14 11 13 12 9 10 11 8 11 11 8 11 9 7 6 6 9 10 10 10 10 11 11 10
18 21 23 21 18 16 17 27 19 14 9 13 16 18 19 20 19 17 14 15 14 17 17 18 17 16 14 8 9 9 13 9 9 8 9 13 11 12 9 9 9 7 6 9 9 9 7 9 10
21 23 23 24 14 18 21 25 21 17 20 21 18 17 18 18 18 16 13 14 15 15 17 17 15 16 14 10 8 6 6 7 7 7 9 13 11 11 9 10 11 9 8 10 10 11 11 10 8
23 24 27 24 21 24 22 27 23 19 20 20 18 19 18 16 18 18 17 14 14 15 17 14 15 16 11 10 10 9 11 10 10 11 13 14 12 13 13 10 12 12 12 12 12 12 12 9 11
22 25 26 25 22 21 19 28 24 21 23 24 24 15 15 18 18 12 6 12 13 16 19 17 16 16 15 11 10 7 12 13 12 12 13 14 15 14 12 12 13 13 11 13 14 13 11 11 11
19 21 21 24 21 27 21 31 33 22 19 16 18 10 7 12 7 9 5 5 8 13 15 16 18 16 18 17 10 7 7 8 11 13 13 14 17 15 13 13 13 12 11 11 13 13 14 10 13
21 19 19 19 19 22 18 13 38 19 21 21 9 11 3 7 6 7 2 6 8 9 12 17 17 17 16 19 14 18 13 14 11 12 13 15 18 17 16 13 13 13 10 14 12 12 12 12 11
19 18 14 18 18 22 32 10 31 19 25 21 11 10 9 8 6 7 8 10 12 12 10 13 17 16 15 16 16 15 16 12 12 12 17 16 16 17 17 13 13 12 10 11 15 15 13 10 11
13 16 20 22 19 21 30 21 29 19 19 9 2 5 5 8 12 16 13 12 12 11 11 10 12 16 14 15 17 18 19 15 12 15 15 14 13 13 17 17 14 13 11 13 12 13 15 11 11
7 12 8 8 13 18 24 21 20 17 7 10 6 7 9 9 8 10 14 12 10 10 9 8 12 11 13 14 16 15 16 15 17 17 15 16 14 14 16 17 15 12 12 12 12 13 13 12 11
4 6 7 8 13 17 21 13 11 10 22 20 16 19 16 9 8 11 14 15 16 16 12 9 10 9 10 12 15 14 14 10 9 13 12 12 12 13 16 15 14 14 14 11 11 10 10 11 9
4 9 4 7 18 15 15 22 27 26 20 17 17 18 19 19 18 17 19 20 15 12 13 12 12 12 11 14 12 13 14 12 10 11 12 9 12 12 16 15 16 15 13 13 11 8 9 10 7
11 3 6 4 6 10 15 19 16 22 23 25 25 23 24 23 23 25 26 25 22 15 12 13 13 15 13 12 13 11 13 11 11 11 13 13 10 13 16 15 15 15 14 14 12 10 8 9 5
10 6 5 7 7 7 11 17 12 21 26 27 29 29 26 28 25 23 23 24 24 21 15 11 16 15 14 13 13 12 10 11 10 10 11 12 11 12 14 13 15 13 14 12 11 11 9 10 9
18 16 4 5 6 10 13 21 20 26 24 27 29 30 28 26 25 22 25 24 22 20 22 18 17 16 10 11 12 12 11 11 11 10 10 10 13 14 13 13 16 13 12 10 11 13 10 11 9
Wind_Direction
206 214 235 241 236 229 255 184 1 191 214 68 336 304 325 318 317 19 102 108 93 140 137 161 126 123 127 130 127 129 132 133 135 133 131 128 124 123 122 133 128 128 122 109 114 117 121 114 104
220 214 232 268 254 231 218 92 208 36 17 334 283 272 250 261 54 98 174 143 151 133 146 163 130 128 130 130 135 131 134 132 131 135 130 126 126 125 132 126 112 113 110 122 124 132 122 116 107
263 245 263 234 242 266 10 96 59 235 255 266 263 197 311 34 59 56 76 144 133 153 172 139 142 138 135 137 136 133 133 133 132 135 132 131 131 133 125 116 116 114 118 131 133 121 111 97 88
224 208 240 254 254 237 259 208 237 244 211 191 287 258 136 76 121 105 137 146 146 169 171 143 148 153 151 152 145 139 138 138 141 144 148 146 136 131 117 117 116 116 121 130 127 118 108 103 94
246 263 260 238 261 249 231 254 235 238 235 241 193 226 229 163 136 138 151 157 168 165 155 155 156 165 162 165 162 157 153 156 153 148 142 143 139 129 123 111 106 123 138 139 130 117 104 100 95
240 253 258 255 270 135 231 249 237 238 235 206 228 241 193 125 167 153 159 166 177 161 158 159 161 167 169 169 165 159 145 145 145 139 137 137 132 123 118 117 129 147 143 139 132 122 114 107 101
253 273 272 293 300 301 281 112 220 246 244 253 211 240 139 158 167 157 167 158 181 171 156 165 174 175 175 169 148 132 129 122 123 126 129 126 122 112 112 121 148 149 141 136 129 122 116 110 103
259 276 277 269 275 299 79 252 264 279 262 42 251 253 237 154 155 167 166 170 168 177 176 183 180 181 177 172 145 141 134 132 129 119 113 114 112 112 133 141 155 147 139 134 128 120 112 103 94
257 266 262 272 278 295 77 268 286 275 298 255 253 263 50 118 158 169 176 191 187 178 186 192 181 185 180 174 152 138 137 130 122 118 121 134 126 138 153 125 134 129 131 128 123 120 113 106 101
234 258 260 272 295 300 291 277 272 272 268 257 231 245 176 155 178 189 191 198 198 196 191 181 188 191 184 163 163 155 151 149 137 140 156 157 140 139 145 106 118 124 125 112 118 119 132 169 139
240 253 269 281 298 281 273 274 274 271 262 256 271 262 192 197 197 213 208 210 201 203 198 200 193 180 174 152 152 139 138 143 150 148 152 151 162 146 140 134 149 137 156 142 144 140 181 144 173
252 249 272 275 281 281 275 282 276 272 272 274 278 278 276 201 217 217 225 208 200 202 197 198 191 185 164 157 154 151 148 146 148 160 159 159 166 161 149 171 158 159 173 151 160 148 86 79 83
256 260 262 274 278 278 278 269 273 268 270 267 266 262 259 262 256 228 222 221 188 201 201 211 181 181 172 150 144 158 154 155 153 168 167 170 166 159 163 167 164 166 147 161 125 133 129 120 119
280 295 285 282 280 278 276 273 270 265 258 251 251 257 248 240 249 252 216 225 199 190 196 195 198 176 169 170 163 164 163 154 155 170 171 182 195 164 171 170 173 169 168 161 161 165 150 139 133
279 276 276 269 268 266 285 280 268 266 255 263 251 229 244 255 259 257 256 209 224 185 192 186 184 189 175 176 173 170 172 169 175 171 184 167 169 168 170 169 176 176 181 176 173 146 130 136 114
266 264 271 269 260 236 251 276 291 293 283 263 243 225 236 250 244 249 244 247 206 194 195 177 178 182 184 180 166 176 175 180 174 176 176 158 168 150 140 146 172 180 179 177 162 158 148 140 135
247 263 265 275 284 297 278 280 289 285 247 259 256 254 261 263 251 236 236 234 210 193 195 189 177 178 175 174 177 172 169 176 168 167 171 172 166 167 166 174 173 175 172 168 164 155 149 139 138
284 288 295 297 298 287 280 273 273 271 280 269 270 276 271 278 273 256 228 222 211 194 191 182 178 178 174 161 164 152 149 175 161 167 172 165 176 175 191 174 169 171 176 166 167 164 150 143 138
287 284 284 283 292 287 283 279 277 278 276 280 269 267 267 267 264 260 251 203 195 195 182 190 173 175 171 170 167 169 172 175 181 182 179 176 173 177 185 177 168 190 178 170 166 161 160 144 132
281 283 282 285 281 270 279 280 282 284 278 271 268 287 277 284 266 247 270 233 198 207 180 185 186 179 182 183 181 186 185 187 189 181 180 183 182 182 182 181 178 183 173 174 170 161 165 155 150
273 272 276 286 296 288 283 280 273 267 271 293 280 262 252 279 298 289 190 227 219 215 194 194 199 190 192 196 181 190 174 193 183 184 184 188 186 185 190 183 182 182 170 169 168 172 169 168 176
272 281 293 290 291 281 292 304 280 292 281 271 252 243 236 18 17 322 88 190 212 233 218 199 210 200 197 201 187 186 188 188 193 185 181 183 184 186 192 183 182 185 173 169 172 168 178 169 190
286 301 293 289 283 291 279 258 281 290 287 295 296 78 111 123 77 351 332 324 321 323 228 219 198 210 201 197 202 192 193 193 188 180 179 180 184 184 186 183 179 180 180 172 177 171 186 190 191
318 296 273 265 264 259 271 270 275 287 277 272 115 4 23 332 346 349 354 340 328 320 308 287 218 210 205 201 205 203 198 189 183 188 180 179 177 179 183 184 181 183 188 177 181 171 181 193 198
240 297 283 264 233 246 270 265 271 295 290 26 18 311 1 343 345 332 333 339 333 337 319 298 277 210 200 203 203 207 208 200 193 185 183 177 176 178 180 182 180 179 184 179 182 174 185 191 202
309 255 268 287 289 302 305 269 266 279 319 320 19 2 348 355 323 313 308 309 317 321 314 288 255 256 195 196 206 204 210 214 204 191 175 182 188 179 169 175 173 175 178 171 179 174 176 180 195
127 237 307 282 265 264 259 274 276 267 282 8 358 343 326 313 307 313 317 317 290 263 279 281 264 234 218 199 203 213 208 198 193 185 182 179 184 173 171 175 168 170 172 162 170 168 175 156 205
231 349 250 214 267 256 267 287 287 331 351 338 323 321 316 303 308 310 303 293 284 271 259 251 243 242 221 198 193 204 206 193 185 177 181 179 186 176 167 167 163 160 162 165 167 155 144 137 183
246 231 229 298 269 281 278 270 311 345 319 315 315 313 310 304 301 295 300 292 278 271 259 246 248 251 238 199 181 190 194 188 180 178 170 174 173 165 161 160 158 153 163 159 148 151 143 133 172
271 282 331 279 293 279 290 269 303 301 305 308 303 296 296 295 291 306 295 290 280 268 261 236 225 219 228 214 180 183 176 168 161 159 156 150 154 150 154 162 149 151 149 155 151 136 144 154 157